Location: Davidschlag
(48.4333°N, 14.2833°E)
Time: 04:17:40
(UTC+00:00)

STARLINK-1055 - Pass Details

Date: 27 February 2020
Orbit: 549 x 550 km, 53.0° (Epoch: 09 April)

Event Time Altitude Azimuth Distance (km) Brightness Sun altitude
Rises 18:38:40 0° 248° (WSW) 2,712 8.1 -19.9°
Reaches altitude 10° 18:40:53 10° 250° (WSW) 1,821 7.1 -20.3°
Maximum altitude 18:45:02 77° 336° (NNW) 569 3.6 -21.0°
Enters shadow 18:45:49 56° 47° (NE) 658 3.7 -21.1°
